Tracking 35237 objects as of 5-Sep-2026
HD Live streaming from Space Station
objects crossing your sky now

STARLINK-35787

Track STARLINK-35787 now!
10-day predictions
STARLINK-35787 is classified as:


NORAD ID: 66978
Int'l Code: 2025-288V
Launch date: December 8, 2025
Source: United States (US)
Launch site: AIR FORCE EASTERN TEST RANGE (AFETR)
Your satellite tracking list
Your tracking list is empty




NASA's NSSDC Master Catalog

Two Line Element Set (TLE):
1 66978U 25288V   26247.99881226  .00008592  00000-0  32139-3 0  9992
2 66978  43.0001  90.5340 0001292 270.2753  89.7951 15.27579065 42717
Source of the keplerian elements: AFSPC